Location: Champignolles
(47.0543°N, 4.5663°E)
Time: 04:34:22
(UTC+00:00)

Cosmos 773 Rocket - Pass Details

Date: 30 November 2020
Orbit: 746 x 776 km, 74.1° (Epoch: 18 January)

Event Time Altitude Azimuth Distance (km) Brightness Sun altitude
Rises 17:19:48 0° 199° (SSW) 3,224 7.8 -14.0°
Reaches altitude 10° 17:22:09 10° 199° (SSW) 2,306 7.0 -14.4°
Maximum altitude 17:27:24 88° 114° (ESE) 781 4.0 -15.2°
Drops below altitude 10° 17:32:44 10° 23° (NNE) 2,335 6.2 -16.1°
Enters shadow 17:32:46 10° 23° (NNE) 2,349 6.2 -16.1°
